Skip Page Navigation
NASA JPL Caltech
NASA Logo - Jet Propulsion Laboratory + View the NASA Portal
+ Near-Earth Object (NEO) Program
Search JPL
JPL Home Earth Solar System Stars & Galaxies Technology
JPL Solar System Dynamics
BODIES ORBITS EPHEMERIDES TOOLS PHYSICAL DATA DISCOVERY FAQ SITE MAP
JPL Small-Body Database Browser
Search: [ help ]  
23779 Cambier (1998 QL10)
Classification: Main-belt Asteroid          SPK-ID: 2023779
Ephemeris | Orbit Diagram | Orbital Elements | Physical Parameters | Discovery Circumstances | Close-Approach Data ]

[ show orbit diagram ]
Orbital Elements at Epoch 2456800.5 (2014-May-23.0) TDB
Reference: JPL 3 (heliocentric ecliptic J2000)
 Element Value Uncertainty (1-sigma)   Units 
e .1883517169381074 7.9922e-08  
a 2.597379389564764 3.1637e-08 AU
q 2.108158522000587 2.1927e-07 AU
i 3.793109828621143 8.0095e-06 deg
node 163.0493580865553 0.00013307 deg
peri 107.193636313352 0.00013608 deg
M 307.2013730550448 3.0858e-05 deg
tp 2457024.744417287380
(2015-Jan-02.24441729)
0.00013351 JED
period 1528.978969616373
4.19
2.7935e-05
7.648e-08
d
yr
n .2354512437082934 4.3018e-09 deg/d
Q 3.086600257128941 3.7596e-08 AU
  Orbit Determination Parameters
   # obs. used (total)      578  
   data-arc span      7128 days (19.52 yr)  
   first obs. used      1994-09-05  
   last obs. used      2014-03-12  
   planetary ephem.      DE431  
   SB-pert. ephem.      SB431-BIG16  
   condition code      0  
   fit RMS      .53938  
   data source      ORB  
   producer      Otto Matic  
   solution date      2014-Mar-22 11:18:12  

Additional Information
 Earth MOID = 1.09552 AU 
 T_jup = 3.388 
[ show covariance matrix ]

Ephemeris | Orbit Diagram | Orbital Elements | Physical Parameters | Discovery Circumstances | Close-Approach Data ]

Physical Parameter Table
Parameter Symbol Value Units Sigma Reference Notes
absolute magnitude H 14.7 mag n/a MPO247561  

23779 Cambier           Discovered 1998 Aug. 17 by the Lincoln Laboratory Near-Earth Asteroid Research Team at Socorro.
Colleen Siobahn Cambier (b. 1993) is a finalist in the 2007 Discovery Channel Young Scientist Challenge (DCYSC), a middle school science competition, for her biochem, medicine, health, and microbiology project. She attends the St. Paul's School, Clearwater, Florida.
NOTE: some special characters may not display properly (any characters within {} are an attempt to place the proper accent above a character)
Reference: 20071026/MPCPages.arcLast Updated: 2007-10-28

[ show close-approach data ]
Alternate Designations
 1998 QL10 = 1994 RJ22 
Ephemeris | Orbit Diagram | Orbital Elements | Physical Parameters | Discovery Circumstances | Close-Approach Data ]
ABOUT SSD CREDITS/AWARDS PRIVACY/COPYRIGHT GLOSSARY LINKS
FirstGov 2014-Apr-16 10:13 UT
(server date/time)  
NASA Home Page
Site Manager:   Donald K. Yeomans
Webmaster  Alan B. Chamberlin